Wind_Speed
60 64 66 64 61 60 59 59 60 61 61 59 57 55 53 52 51 47 43 42 43 45 45 44 44 38 33 38 43 43 46 43 38 36 35 34 32 30 29 26 24 23 23 26 28 26 22 21 21 22 21 19 19 20 20 19 18 18 17 17 18 17 16 16 17 18 18 19 19 19 19 20 21 20 19 20 21 21 22 22 21 21 23 24 24 25
59 63 62 59 58 57 58 59 59 61 61 59 57 55 54 53 52 50 47 44 43 46 47 46 47 41 34 36 42 45 48 45 39 38 37 37 36 34 31 28 25 23 24 26 26 26 24 22 22 22 22 21 20 21 22 21 20 19 17 18 19 17 17 18 18 19 19 20 20 19 20 21 21 20 20 20 21 21 22 22 22 23 25 25 26 27
58 62 56 56 59 58 58 60 61 61 61 59 58 56 55 53 52 52 51 47 44 46 48 48 50 46 38 36 41 45 47 44 40 39 39 39 39 37 32 29 28 26 24 24 25 26 25 23 23 22 21 22 22 23 22 21 22 21 20 21 21 19 19 20 19 19 20 21 20 20 21 21 21 21 21 21 21 21 22 23 25 26 27 27 27 27
55 57 54 57 61 61 62 62 61 62 62 61 59 58 57 55 54 54 53 50 49 49 49 50 51 51 44 39 40 43 44 43 41 40 39 40 40 37 35 32 30 27 25 25 26 26 26 24 23 21 21 23 24 23 22 22 24 23 23 23 22 21 21 20 20 20 21 22 21 21 22 22 22 22 21 21 21 23 24 25 27 28 28 27 27 27
49 50 53 57 59 62 64 63 62 62 61 61 60 59 58 56 56 56 53 52 53 54 53 51 53 54 50 43 40 41 44 42 41 41 39 38 37 37 37 35 32 29 28 29 28 27 27 26 24 23 23 24 24 23 22 24 25 25 25 25 23 22 21 21 21 21 22 22 22 22 22 22 22 22 22 21 23 26 26 26 27 27 27 28 28 29
42 44 48 53 59 62 63 62 62 62 61 60 59 58 58 56 56 57 56 54 54 56 56 55 56 55 51 46 41 41 45 44 41 42 40 36 35 36 37 35 33 33 31 31 31 31 30 28 27 25 24 24 24 24 25 26 27 27 27 26 25 23 22 22 22 23 23 22 22 22 22 23 23 22 22 23 26 27 27 26 27 27 27 29 30 31
42 42 44 48 54 57 59 60 61 59 60 61 58 57 57 55 55 57 57 56 55 55 56 57 59 58 53 48 44 42 45 45 42 41 38 34 33 33 34 34 35 35 34 33 33 34 33 32 30 27 26 26 25 26 28 29 28 28 28 28 27 25 24 23 23 23 22 22 22 22 23 23 22 22 23 26 28 28 27 27 27 27 28 29 30 31
47 42 44 43 44 48 53 57 57 57 58 58 55 55 57 56 57 58 58 58 57 56 56 55 57 60 57 50 45 43 45 45 43 40 36 33 32 31 31 33 35 36 36 36 35 36 36 35 33 31 28 28 28 29 30 29 28 28 28 29 28 27 25 24 24 23 22 22 22 23 24 23 22 23 25 28 28 28 28 27 27 28 28 29 30 31
58 52 45 39 38 39 39 41 44 46 51 55 55 54 55 58 58 55 55 58 57 58 58 54 54 60 61 55 47 45 46 46 43 40 36 33 31 31 31 32 33 35 37 38 37 37 37 36 35 34 32 31 31 31 31 30 29 28 28 28 27 26 25 25 25 24 23 23 23 24 24 23 24 25 27 29 29 28 28 27 27 28 28 29 30 30
73 66 56 50 50 40 29 30 33 32 38 48 53 54 54 57 58 53 53 56 57 59 59 53 51 58 63 60 52 47 46 45 42 40 37 33 31 31 31 31 32 34 34 35 35 35 36 37 36 36 36 35 33 32 32 32 31 30 28 27 26 25 25 26 25 25 25 25 25 25 25 25 26 27 28 29 28 28 28 28 28 29 29 30 30 30
79 76 71 67 63 51 42 42 41 33 32 37 46 52 54 57 57 54 53 52 54 61 61 53 50 55 62 63 56 50 46 43 41 40 37 34 33 33 32 31 32 32 32 31 31 32 34 35 36 36 36 37 36 34 34 34 34 33 31 30 29 28 29 28 27 27 27 27 26 26 26 26 27 28 28 28 27 27 28 28 28 29 30 30 30 31
77 80 79 74 67 60 56 53 48 42 36 34 40 47 51 56 58 57 56 52 52 58 60 57 54 57 63 64 58 51 46 43 41 37 35 35 36 36 35 32 31 30 30 30 29 29 31 32 34 35 35 36 38 38 37 37 37 36 35 34 33 33 33 32 31 30 30 30 29 27 27 27 28 28 28 27 27 27 28 28 29 29 30 30 31 32
72 78 78 76 74 68 62 56 51 47 41 35 37 40 43 49 53 57 59 58 58 57 57 60 62 65 67 64 59 52 44 41 39 36 35 36 36 37 37 35 32 30 29 29 29 28 29 30 31 32 33 35 37 38 39 39 39 39 38 37 36 36 36 35 34 33 32 32 30 29 29 28 29 29 28 27 27 28 28 29 29 30 30 31 32 32
68 74 75 74 77 76 72 65 56 49 43 38 38 39 40 44 47 52 55 58 61 61 61 62 67 73 70 64 61 55 44 39 38 36 35 35 35 36 37 37 34 32 30 28 29 28 27 28 28 29 29 30 32 33 36 38 39 39 39 38 36 35 35 36 35 35 34 33 32 31 31 30 30 29 29 29 29 30 31 31 31 31 32 33 33 33
66 69 73 74 77 81 81 75 66 55 48 45 43 43 45 48 50 51 52 53 54 57 62 67 72 76 70 63 61 55 45 41 39 36 34 34 35 36 37 38 36 35 33 31 30 29 27 27 27 27 26 26 26 27 29 32 34 35 35 36 34 33 33 34 35 35 35 34 33 33 32 32 31 31 31 31 32 32 33 33 34 34 34 34 34 34
68 66 69 69 67 69 74 75 70 64 60 55 51 50 50 51 52 51 51 51 49 50 58 68 75 74 68 65 63 57 50 44 40 38 35 35 36 37 36 37 38 37 36 33 31 30 28 27 27 26 26 26 26 25 25 27 28 29 30 31 31 31 32 33 34 35 35 35 34 34 33 33 34 34 34 34 34 35 35 35 35 34 34 34 35 35
68 64 63 64 61 61 65 66 62 62 64 60 56 53 49 50 53 52 53 54 52 53 59 68 73 73 71 70 68 64 58 52 47 43 39 37 38 38 37 37 37 37 36 35 33 31 29 28 27 27 26 26 27 26 25 25 26 26 26 27 27 28 29 30 30 31 31 32 33 33 33 34 35 35 35 35 36 36 36 35 35 34 34 34 35 36
68 65 61 61 60 57 58 59 56 57 60 62 60 52 46 50 53 52 55 57 55 55 61 68 71 72 75 73 70 69 67 63 60 55 49 45 42 40 38 37 37 37 38 37 35 33 32 30 29 28 28 27 27 27 27 26 25 25 25 25 26 27 28 28 28 29 29 30 31 31 33 34 35 35 35 35 36 35 34 33 32 32 32 33 33 34
70 69 67 64 60 55 53 53 53 55 58 62 62 55 50 51 51 52 55 56 54 53 58 64 68 72 76 74 71 70 69 66 64 61 57 53 49 45 42 40 39 39 40 39 37 36 35 34 33 31 30 29 28 28 28 27 26 25 25 26 26 27 28 29 29 29 29 29 30 31 32 33 33 33 34 33 33 32 30 30 30 29 30 31 32 34
71 71 71 70 67 63 60 57 55 55 56 59 60 59 57 53 49 51 53 52 51 51 53 58 64 72 74 73 72 72 69 65 62 61 58 54 52 49 45 42 42 42 41 40 39 38 37 37 36 34 32 30 29 29 28 28 27 27 27 27 27 28 28 29 28 28 28 29 29 30 30 31 31 31 30 30 29 27 27 28 28 29 30 32 33 34
74 74 73 72 71 71 70 67 60 55 55 57 59 62 64 60 54 53 54 53 52 52 52 54 63 72 73 70 72 73 70 67 65 64 60 55 52 51 48 46 44 42 41 41 40 39 38 37 36 35 34 32 31 30 29 29 29 29 29 28 28 28 28 28 28 28 28 28 28 28 28 29 29 29 28 28 27 26 27 28 29 30 32 33 35 36
77 77 76 74 74 73 71 68 63 59 57 56 57 60 64 63 60 60 61 59 56 56 53 52 60 69 70 69 72 70 68 66 63 62 60 56 54 52 51 51 48 45 42 42 42 40 39 38 37 36 35 33 32 31 30 30 30 30 30 30 29 29 29 29 29 29 29 29 29 28 29 29 29 29 28 28 28 28 29 30 31 33 34 35 37 38
77 78 79 79 78 75 70 66 65 64 62 58 57 59 60 63 64 65 65 63 61 61 58 58 63 63 62 63 66 62 57 55 54 55 54 54 54 53 53 53 52 50 47 45 45 44 42 40 38 37 36 34 33 32 31 30 30 30 30 30 30 30 30 31 30 30 30 30 30 30 31 31 30 30 30 29 30 30 31 33 34 35 36 37 38 40
72 76 78 79 79 77 73 69 68 67 66 66 64 62 61 63 65 66 66 64 64 64 62 65 68 61 55 55 61 61 56 52 52 53 52 52 52 52 53 54 54 54 52 49 48 47 46 44 42 39 37 35 34 33 32 31 31 31 32 32 32 32 32 32 31 32 32 32 32 33 33 33 32 32 31 32 32 33 34 35 36 37 38 39 40 42
72 74 76 77 78 78 76 73 70 68 68 70 70 67 66 65 64 66 66 65 68 68 65 68 68 60 54 54 59 63 63 59 57 56 56 53 49 48 50 51 51 52 52 52 51 48 47 46 44 42 39 37 35 34 34 33 33 33 34 34 34 34 34 33 33 33 34 34 35 35 35 35 34 34 34 35 36 36 37 38 38 39 40 41 42 44
69 72 76 79 80 81 80 78 74 70 67 67 67 67 68 68 68 69 68 68 70 68 66 69 66 57 53 55 58 61 63 63 60 58 58 54 47 44 44 45 46 47 49 50 50 49 47 46 45 43 41 39 38 36 36 35 35 35 35 35 35 35 34 34 35 35 36 36 37 37 37 37 36 36 37 38 39 40 40 40 41 41 42 44 45 46
67 69 72 77 80 83 82 80 77 74 73 72 68 66 65 65 66 68 70 71 69 65 65 66 62 56 53 52 55 58 61 62 62 61 60 57 50 43 40 42 43 44 46 47 48 49 49 47 46 44 43 42 41 40 39 38 37 36 36 36 35 35 35 36 37 37 38 39 39 39 40 39 39 40 40 41 42 42 42 42 43 44 45 46 46 47
70 71 72 73 77 79 79 79 77 76 78 78 75 72 70 68 67 68 70 69 66 66 68 65 60 59 56 51 52 56 59 60 61 61 60 59 56 47 42 43 45 44 45 46 47 49 49 48 47 46 45 44 43 43 42 41 40 39 38 37 37 37 37 38 39 39 40 41 41 41 41 41 41 42 43 43 44 44 44 44 45 45 46 47 46 46
69 71 72 73 76 78 78 79 78 76 75 76 75 72 71 70 70 70 69 66 64 66 66 61 58 59 57 54 54 56 58 60 60 60 59 59 59 53 46 44 46 45 46 47 48 49 50 49 49 48 47 46 45 45 44 44 43 42 41 41 40 41 41 41 41 42 42 43 43 43 43 43 43 44 44 45 45 45 45 45 46 47 47 46 44 44
65 65 64 65 70 75 78 80 79 76 75 76 75 72 67 65 66 67 66 64 62 63 60 55 53 55 54 56 57 56 57 60 60 59 58 57 58 56 48 44 45 47 47 47 48 50 51 52 52 52 52 51 50 49 47 45 45 44 44 44 44 44 43 43 44 45 45 46 46 46 45 45 45 45 46 46 46 46 46 46 47 46 44 43 42 42
66 66 63 61 63 68 73 76 78 78 78 79 79 78 74 70 68 68 68 65 64 64 60 55 54 54 52 53 58 59 59 60 59 58 56 53 53 53 49 45 45 47 48 48 48 50 52 53 54 55 55 55 54 52 51 49 48 47 46 45 45 45 45 45 46 47 48 48 47 47 47 47 47 47 48 48 47 47 47 47 45 43 41 40 41 42
61 65 66 67 69 70 68 71 75 76 77 80 82 82 79 77 74 72 71 69 68 66 63 61 59 55 48 48 54 60 61 60 60 59 56 52 50 50 50 47 45 45 45 45 46 48 50 52 54 56 57 57 56 55 54 53 51 49 48 47 47 46 47 48 48 49 49 49 49 49 49 49 49 49 48 48 47 47 46 45 42 39 40 41 42 44
56 60 63 68 74 75 71 71 72 73 78 83 81 76 75 74 74 74 73 71 69 67 67 67 62 53 46 45 48 54 59 61 61 59 56 51 48 48 50 50 49 45 42 41 43 46 48 51 53 55 56 57 57 57 56 55 54 52 51 50 49 49 49 50 50 51 50 50 50 50 50 50 49 49 49 48 47 46 44 41 39 39 40 41 42 43
55 58 60 63 69 73 73 73 73 78 85 83 71 67 71 74 74 76 75 69 65 65 66 65 61 54 50 47 45 49 55 58 58 57 55 51 49 49 50 53 53 49 43 42 43 43 46 50 52 53 54 55 56 57 58 57 56 55 53 53 52 51 52 52 52 52 52 51 51 51 51 50 50 49 48 47 45 44 41 39 39 39 40 40 40 41
56 57 60 61 63 67 71 75 77 82 85 77 66 66 71 73 73 74 72 67 64 64 65 64 59 55 51 47 45 48 54 56 57 56 55 53 52 51 50 52 53 51 46 42 42 42 44 47 49 50 52 53 55 56 57 56 56 56 55 54 54 53 54 54 54 53 53 52 52 52 52 51 50 49 47 45 44 42 40 39 39 38 37 37 38 39
56 58 60 61 60 60 66 75 81 83 79 73 69 70 67 64 65 68 69 68 65 64 65 64 58 52 49 47 47 49 52 55 57 57 56 54 52 51 50 50 51 51 48 43 40 40 41 43 45 47 49 52 54 54 54 55 56 56 56 55 55 55 54 55 55 54 53 53 53 53 53 51 50 48 46 44 42 41 40 39 37 35 35 35 37 38
52 57 61 64 65 61 62 68 74 79 80 76 72 68 60 54 54 56 61 65 63 59 60 60 56 51 49 46 46 48 52 56 59 58 55 54 53 52 52 50 49 49 48 43 38 36 37 40 44 46 48 50 52 52 52 53 54 54 55 55 55 55 55 55 55 54 54 54 54 54 53 51 48 46 45 43 42 41 40 37 34 33 33 34 35 36
50 54 58 64 69 68 65 64 66 72 78 79 75 66 56 50 47 46 51 58 59 54 54 55 52 49 47 45 45 49 53 57 59 56 53 53 54 53 50 47 46 45 44 41 38 36 36 38 42 44 46 47 49 50 52 53 52 52 53 54 54 54 55 55 55 55 55 55 55 54 52 49 47 45 44 43 43 41 39 36 33 32 32 33 34 35
51 52 56 60 64 68 69 68 66 67 72 76 76 69 61 57 55 55 56 55 52 48 49 51 51 48 47 48 49 51 54 57 56 52 52 54 53 50 48 46 44 44 43 42 42 41 39 39 41 44 46 47 49 51 53 54 52 52 53 53 52 53 53 54 54 55 56 56 55 53 50 48 46 45 45 44 43 42 38 34 32 31 31 32 33 34
49 50 54 57 58 62 66 68 68 66 66 71 76 76 72 67 67 72 68 52 46 44 42 44 49 49 49 52 53 52 55 56 53 51 54 56 53 50 50 49 48 48 48 46 46 45 44 44 44 45 46 48 50 52 54 54 54 53 53 52 51 51 51 53 55 56 57 56 54 51 49 47 46 45 45 46 44 42 38 34 32 32 32 32 32 32
44 44 48 54 56 58 60 64 68 68 65 66 70 75 76 72 72 75 62 40 38 43 40 37 43 47 49 53 54 54 56 56 55 57 59 58 55 53 52 51 50 52 52 50 49 50 50 49 49 48 48 49 51 53 54 55 55 54 53 52 51 50 51 54 55 56 57 55 53 51 49 48 47 46 47 47 46 43 39 36 35 35 34 34 33 32
43 41 42 48 54 58 58 58 62 65 67 67 67 69 73 72 70 68 54 39 39 44 41 39 42 45 49 53 55 57 58 55 56 60 60 58 58 57 54 52 52 53 54 54 53 53 54 54 53 53 51 51 52 53 53 54 54 53 53 51 51 51 53 55 56 57 57 55 53 51 50 49 48 48 49 49 47 44 42 40 38 37 37 37 36 36
44 43 42 43 47 54 58 58 60 61 62 65 67 69 72 73 70 67 61 52 47 45 45 45 45 46 51 54 55 59 59 56 56 58 59 60 60 59 57 55 54 55 55 55 54 54 56 56 57 57 55 54 54 54 54 55 54 52 51 50 50 52 54 55 56 57 57 55 53 52 51 50 50 50 51 50 49 46 44 43 41 40 40 40 40 40
44 45 44 42 43 47 52 55 57 58 59 62 65 66 69 70 69 69 67 60 52 49 50 49 48 51 53 51 52 56 58 57 57 57 58 60 60 59 59 58 57 58 58 56 55 55 57 57 58 59 58 57 56 56 56 56 55 53 51 49 50 52 53 54 56 57 57 55 53 52 52 51 52 52 52 52 50 48 47 45 43 42 43 43 43 43
42 42 42 42 43 46 48 49 49 51 56 62 65 65 66 66 65 67 68 65 60 58 56 52 51 55 55 52 51 52 52 53 54 55 57 59 59 60 60 60 60 60 59 57 55 55 56 57 57 59 59 58 57 57 57 57 56 53 50 48 49 51 52 54 56 57 56 54 53 53 52 52 53 54 54 53 51 50 49 48 46 45 46 46 46 46
37 38 39 41 43 45 47 47 46 45 48 54 60 63 65 63 61 61 65 68 69 67 64 59 56 56 57 57 54 52 51 52 52 53 55 57 58 60 60 60 60 59 58 56 55 55 56 57 57 59 59 58 58 58 58 58 56 53 49 47 48 50 52 55 56 56 55 54 53 53 53 53 54 54 54 54 52 51 50 50 49 49 49 50 50 50
36 37 38 39 41 43 44 44 44 45 47 51 55 57 59 60 60 59 61 65 69 70 69 66 61 59 60 60 58 57 57 55 53 53 54 56 57 58 58 59 61 60 59 58 57 57 58 58 58 59 59 59 59 58 58 58 56 52 49 48 48 50 53 55 56 56 55 55 54 54 54 54 55 55 55 54 53 52 52 52 51 51 51 52 52 52
38 39 39 39 40 42 43 42 43 45 47 49 53 54 55 55 56 57 58 60 65 67 69 69 67 64 62 61 61 61 60 59 57 56 56 56 57 57 57 59 61 62 61 60 59 60 60 60 60 60 60 60 60 59 58 57 55 52 50 49 50 51 54 56 56 56 56 55 55 55 55 55 55 55 55 55 54 52 52 53 52 52 52 53 54 54
41 40 40 40 41 42 42 42 42 44 45 47 49 53 56 57 57 56 57 58 61 65 67 70 70 68 65 64 64 63 62 61 61 61 60 59 58 57 58 58 59 61 61 61 61 62 62 62 62 62 62 62 61 60 60 58 56 53 52 52 53 53 55 56 56 56 56 56 56 55 55 55 56 56 56 56 54 53 53 54 53 53 53 54 54 54
43 42 41 42 44 44 43 42 44 46 47 47 48 51 55 59 60 59 57 58 60 63 66 69 71 71 68 67 66 66 65 63 63 63 62 61 60 60 59 59 59 59 60 60 61 61 60 61 62 63 64 64 63 62 61 59 56 55 55 56 55 55 55 55 55 56 56 56 55 55 55 56 56 57 57 56 55 54 54 54 54 54 54 54 54 53
45 45 44 45 46 45 45 45 46 48 49 49 50 52 55 58 61 62 60 59 60 62 65 68 71 71 70 68 68 69 68 65 64 64 64 62 62 62 61 60 60 59 58 59 59 59 58 59 59 61 63 63 63 62 61 59 58 57 58 59 57 56 55 55 55 56 56 55 55 55 55 56 57 57 56 56 55 55 55 55 55 55 54 54 54 53
Wind_Direction
225 227 228 228 228 229 231 232 233 235 236 237 235 233 234 234 235 236 237 236 235 236 236 238 242 237 230 236 241 243 247 249 249 250 249 249 252 256 256 253 250 245 241 244 248 252 252 248 249 250 249 245 245 250 252 251 250 249 250 251 250 252 254 255 256 256 256 255 253 252 252 253 256 258 262 265 266 268 270 271 269 267 266 266 268 269
225 227 227 228 229 229 231 232 233 234 236 237 237 236 235 236 236 237 238 239 239 240 240 241 243 239 230 235 243 245 247 250 251 252 252 250 250 253 255 254 252 248 245 246 249 252 253 250 248 249 249 246 243 245 248 251 252 252 251 250 247 246 247 249 251 254 255 255 256 257 257 258 260 260 260 261 263 267 268 268 266 264 262 262 264 267
223 226 226 225 226 226 228 231 232 233 235 236 237 237 236 236 237 238 239 241 243 244 244 243 244 242 234 232 240 244 247 250 251 251 252 251 249 250 253 254 252 250 248 249 250 250 251 251 248 248 250 249 245 243 245 250 253 252 249 246 245 244 243 245 247 250 253 256 258 259 259 259 259 259 259 260 263 264 263 262 263 263 264 265 266 267
223 226 225 224 224 225 227 229 231 232 233 234 236 237 237 236 237 238 240 241 243 246 246 245 244 244 239 233 235 243 247 249 250 250 250 251 251 251 252 252 252 251 250 250 250 249 248 249 250 249 249 248 246 245 245 247 250 251 250 249 248 247 247 247 247 248 251 255 257 258 258 258 258 258 257 258 258 258 257 260 263 266 269 271 271 270
226 225 223 224 224 224 226 228 230 232 233 233 234 236 238 237 237 238 240 241 242 245 247 247 245 242 241 238 235 241 246 246 247 249 249 250 252 252 251 252 252 252 252 251 251 249 246 247 250 250 249 248 249 249 248 247 248 249 251 252 251 250 251 251 249 248 250 252 254 254 255 257 257 257 258 257 256 256 258 261 265 268 270 272 272 272
223 226 223 223 225 225 227 228 229 231 233 235 234 236 239 239 238 239 240 242 243 243 246 249 247 241 240 242 239 238 243 244 244 247 249 250 252 252 251 251 251 250 251 252 253 251 246 245 247 249 251 252 251 250 248 246 246 247 250 253 254 253 253 252 251 251 252 253 254 255 256 255 255 257 260 259 258 259 261 263 265 267 269 270 271 273
213 223 224 221 224 226 227 228 228 229 231 233 234 236 240 241 241 241 241 242 244 243 245 249 249 244 239 240 240 237 239 243 244 245 248 251 252 253 252 251 251 250 250 252 253 253 249 245 246 248 251 252 251 250 249 247 247 248 250 253 255 255 256 256 256 256 257 256 256 256 255 255 256 256 257 257 258 261 263 264 265 266 268 270 271 273
210 217 221 219 222 226 228 229 229 231 233 233 233 236 239 241 242 242 242 243 243 243 244 246 249 247 239 236 239 239 237 239 243 245 247 251 254 255 254 251 251 251 251 251 252 254 253 249 247 249 250 251 251 251 252 251 251 250 250 253 255 257 259 261 262 261 261 259 258 256 255 255 256 254 254 256 259 261 263 265 267 267 269 270 272 274
219 219 218 217 221 224 226 227 228 233 235 233 233 235 237 239 240 240 241 241 241 241 242 243 246 247 240 233 237 239 238 237 239 244 247 250 253 255 256 254 252 251 250 251 252 254 255 252 250 249 249 249 249 252 255 255 255 253 252 253 256 259 261 262 263 263 261 259 257 257 257 255 254 253 254 257 260 263 265 267 268 269 270 271 273 276
228 225 224 227 230 226 214 214 223 232 236 234 234 235 236 239 240 240 241 240 239 239 239 239 243 246 242 236 236 237 237 237 237 241 245 247 252 254 254 254 252 251 250 251 253 255 256 255 252 251 250 250 251 252 255 256 256 256 256 256 257 259 260 260 262 264 263 261 258 257 257 256 254 254 256 257 261 264 267 268 269 271 272 273 275 276
232 230 231 234 235 232 226 227 232 236 239 240 238 236 236 239 241 242 242 242 242 239 237 237 240 246 244 237 236 236 235 237 237 239 244 246 249 252 252 253 252 253 253 253 254 256 256 255 254 254 252 250 252 253 254 255 255 256 256 258 260 260 259 259 262 264 265 264 262 259 256 256 256 257 258 259 262 265 267 268 270 271 272 274 275 276
233 233 235 235 234 233 233 234 235 235 235 237 238 239 239 241 241 243 243 241 243 241 238 237 239 245 242 235 234 235 233 234 236 238 244 246 247 250 252 254 255 256 256 256 256 255 255 254 253 254 251 248 249 251 253 253 253 254 255 257 259 260 259 259 260 263 265 266 266 264 261 258 258 259 260 261 262 264 266 268 270 273 275 276 276 278
235 235 237 236 235 234 234 235 234 232 229 225 228 233 238 240 241 243 244 242 241 241 238 237 238 242 241 236 236 236 230 230 234 237 241 243 247 250 252 255 256 258 258 257 256 254 252 251 251 251 250 248 247 249 250 251 251 252 254 256 258 259 258 257 258 261 264 266 266 266 265 262 261 262 264 264 263 265 267 270 272 275 276 277 278 280
238 237 238 237 235 234 235 236 235 232 230 227 227 231 236 240 241 243 246 247 244 242 239 238 238 239 239 237 238 237 230 226 231 238 241 243 246 249 252 254 254 256 259 257 255 253 251 250 250 251 251 250 250 250 250 250 251 252 253 255 257 258 257 256 257 260 262 264 264 263 263 262 262 263 263 263 264 266 268 270 271 272 273 275 277 278
240 239 241 241 238 237 237 239 238 237 240 240 239 243 243 243 245 245 248 253 252 248 244 242 241 241 239 238 239 240 234 228 231 238 242 244 246 249 251 254 254 254 256 256 253 252 251 250 250 251 252 253 252 252 251 251 251 251 251 252 253 254 255 255 255 256 259 260 261 261 261 262 262 262 261 262 263 265 267 268 269 270 272 273 274 275
241 241 242 245 245 241 240 241 239 238 240 241 241 245 245 245 249 250 251 255 257 255 248 244 244 244 242 240 241 241 238 232 233 239 242 242 244 247 251 254 256 256 255 254 252 250 250 251 251 252 253 255 255 254 252 251 250 249 248 248 249 250 251 252 253 254 256 257 259 260 261 262 262 262 262 262 263 265 266 268 269 271 271 271 272 272
239 240 240 245 247 243 241 242 242 239 238 239 240 243 247 250 251 251 251 252 254 253 248 244 244 243 242 240 238 239 239 236 236 240 244 246 245 245 249 252 256 258 258 256 253 251 251 253 255 254 253 253 254 255 253 251 250 249 247 246 247 247 249 251 252 253 254 255 256 257 258 259 260 261 261 262 263 265 267 269 270 271 271 272 272 273
236 238 236 239 244 243 240 241 241 239 237 236 237 240 246 251 250 246 245 247 250 252 249 246 244 242 240 238 235 238 241 242 244 245 247 250 251 248 247 249 252 255 257 258 257 256 255 256 257 255 253 252 252 253 254 252 251 250 250 250 249 250 251 252 252 253 253 254 256 256 257 258 259 260 261 262 263 266 268 271 272 273 275 275 275 276
235 237 236 236 239 240 240 238 236 236 236 235 234 235 239 243 243 241 240 243 248 253 253 249 246 243 240 236 236 240 243 247 252 253 250 249 251 251 249 249 250 252 254 256 257 258 257 257 257 255 254 252 251 251 252 252 252 252 252 252 252 252 253 254 255 255 256 257 258 258 258 259 261 262 263 263 265 268 271 273 274 276 277 277 278 279
235 238 238 238 239 239 240 239 236 233 235 235 232 231 234 238 242 243 243 244 249 254 256 252 249 244 238 236 239 243 246 250 254 255 253 250 248 250 252 251 251 252 254 255 255 256 256 256 257 256 255 253 252 251 252 252 253 253 253 253 253 254 254 254 255 256 257 258 258 259 259 260 261 262 263 265 267 270 271 271 273 275 276 277 279 279
235 237 237 238 239 240 240 240 239 238 237 237 234 231 232 236 240 242 243 245 247 251 254 253 250 242 235 236 241 245 247 250 252 254 255 254 250 249 250 252 253 254 257 258 257 257 257 257 257 257 256 255 253 252 252 252 253 253 254 255 254 254 253 253 255 256 257 257 258 258 259 260 261 263 265 267 268 268 269 270 271 273 274 276 278 279
236 236 237 237 239 241 241 240 242 243 243 242 240 237 235 237 241 242 244 245 247 251 253 256 253 243 236 237 241 245 249 251 253 255 257 258 257 253 252 252 254 257 260 261 261 260 259 259 258 257 256 256 255 253 252 251 252 253 253 254 254 253 253 253 254 255 255 255 256 257 258 259 261 262 263 263 264 265 266 268 270 271 274 275 276 277
237 238 238 239 239 241 243 242 241 242 242 242 242 241 240 242 245 247 249 249 252 255 257 261 259 246 236 238 241 245 252 253 256 259 260 262 263 261 258 256 255 258 260 262 261 261 260 259 257 256 255 255 255 254 253 252 252 253 253 253 253 253 254 255 255 255 255 255 256 257 258 259 260 260 260 260 261 263 265 267 269 271 273 274 274 275
237 237 238 239 240 241 242 243 242 241 240 240 239 239 239 242 245 247 249 251 254 256 255 259 260 247 236 240 242 244 250 253 255 258 259 261 263 263 263 260 257 257 258 259 260 259 259 258 257 255 254 254 254 253 253 253 253 254 254 254 254 254 254 255 255 256 256 256 256 257 259 260 260 260 260 261 262 264 267 268 270 272 273 274 274 274
237 237 237 238 239 239 238 238 239 239 239 240 240 241 241 243 246 247 248 249 251 252 252 255 257 248 239 242 244 245 247 249 252 256 257 258 260 261 263 262 261 259 258 258 258 257 257 258 257 256 255 254 254 253 252 252 251 252 252 253 254 255 255 256 256 256 256 256 257 258 260 261 261 261 262 263 265 266 268 269 271 272 273 273 273 274
238 238 238 237 238 238 238 237 238 239 241 242 242 243 244 245 247 248 249 250 250 251 253 254 255 251 246 247 247 247 249 249 250 252 254 256 258 261 264 265 264 262 259 257 256 256 257 257 257 257 256 256 255 254 252 251 250 250 250 251 252 253 254 255 255 256 257 257 259 260 262 262 262 262 263 263 265 266 267 268 270 272 272 272 273 274
238 238 237 237 238 240 241 242 241 240 241 242 242 243 244 245 247 248 249 250 251 254 256 256 257 254 249 248 249 249 250 251 252 252 254 256 258 260 263 265 263 260 258 257 257 257 257 257 257 256 256 256 255 255 254 252 251 250 250 250 251 252 252 253 254 255 256 258 260 260 261 261 261 261 261 262 263 265 266 268 270 272 272 273 273 275
237 237 236 236 237 238 240 242 242 240 240 242 243 244 245 247 249 249 249 250 252 254 256 257 259 256 249 246 249 250 250 251 252 254 255 256 257 257 258 260 261 260 259 258 257 257 255 255 255 255 255 254 254 254 254 254 253 253 253 253 253 253 253 254 254 255 257 258 259 260 259 259 259 259 260 261 263 265 267 269 271 272 273 274 276 277
237 239 238 238 237 236 236 238 240 239 240 241 242 243 244 246 248 249 250 250 251 253 255 256 259 258 251 247 248 250 251 253 253 253 254 256 257 257 256 257 260 261 262 261 258 255 253 252 253 253 254 255 255 254 253 253 254 254 255 255 255 256 256 257 257 258 259 260 260 260 259 258 259 259 261 262 264 266 268 270 272 273 275 276 279 281
235 237 238 240 240 237 235 236 237 237 237 237 239 240 240 242 247 250 251 251 250 253 255 253 252 252 248 246 247 249 251 253 254 253 254 255 257 259 258 258 258 259 260 261 259 255 252 251 252 253 254 255 255 254 254 253 253 254 254 255 255 256 257 258 259 260 261 261 260 259 259 259 260 261 262 263 265 266 268 271 273 274 276 279 281 283
232 232 232 235 238 237 235 235 236 236 236 237 238 240 240 242 246 250 251 251 250 251 252 251 248 248 247 247 247 248 250 251 253 254 253 253 254 258 259 257 257 257 256 255 254 252 251 251 252 253 254 254 254 254 255 255 254 254 253 254 254 256 257 258 259 259 259 259 259 259 259 259 260 262 263 264 265 267 269 271 274 276 278 280 281 283
233 232 229 228 230 232 231 232 234 235 236 236 237 239 241 243 246 248 249 249 250 251 251 250 248 249 251 250 246 246 248 250 251 252 252 251 252 257 259 258 258 257 254 251 249 249 251 251 252 253 254 253 253 254 254 255 255 255 254 254 255 256 256 257 257 258 258 258 258 257 258 259 260 262 263 264 266 268 270 273 274 276 278 280 282 284
234 233 231 229 229 230 228 229 231 232 233 234 233 235 239 242 245 247 248 248 249 251 251 251 249 249 251 247 243 243 245 247 249 250 251 252 254 257 258 257 257 257 254 251 249 248 248 249 251 252 253 254 254 254 254 254 255 255 254 255 255 256 256 257 257 257 257 257 257 257 258 259 260 262 263 264 266 268 271 273 273 275 278 281 283 285
235 234 233 232 231 231 229 228 229 230 232 232 230 230 236 240 242 245 246 247 248 249 251 251 248 245 244 242 239 240 242 243 245 249 252 253 254 255 254 254 256 257 255 254 252 250 249 249 249 250 252 253 253 253 253 254 253 253 253 254 255 255 256 257 257 257 257 256 257 257 258 259 261 262 263 264 266 269 270 270 271 274 279 282 284 285
234 234 234 234 235 234 231 229 231 232 232 231 229 229 235 239 240 241 244 245 246 247 248 250 246 241 241 241 240 240 241 242 243 244 247 249 250 252 254 255 257 259 259 258 257 254 251 249 250 251 251 252 252 252 253 254 254 253 252 253 254 254 255 256 257 256 257 257 258 258 259 260 261 261 262 264 266 267 266 267 271 276 281 284 286 288
233 232 232 232 235 236 233 231 234 235 233 231 229 230 232 233 234 238 241 242 244 246 247 249 248 241 238 240 242 243 243 242 242 240 241 243 246 249 253 255 257 261 262 259 256 252 250 250 250 251 250 250 250 251 252 253 253 253 253 252 253 253 254 254 255 255 256 257 258 259 259 260 260 261 262 264 265 264 263 267 273 278 282 286 289 289
233 232 230 230 231 233 233 234 234 236 235 232 229 228 228 227 231 239 242 240 241 244 245 247 247 240 237 241 246 248 247 245 243 238 235 238 242 246 250 252 254 257 259 259 256 252 250 249 248 249 249 250 251 252 252 253 253 252 252 251 251 251 252 253 254 254 255 256 257 258 259 259 260 262 263 264 263 261 263 268 273 278 283 287 288 288
233 233 231 230 231 232 235 237 237 237 236 231 228 227 225 227 231 241 245 239 234 238 242 243 242 238 237 242 249 253 251 248 244 236 230 235 241 244 247 251 252 253 255 258 258 253 248 247 246 246 247 248 250 252 252 253 252 252 251 250 249 249 250 252 254 255 255 255 256 257 258 259 260 262 262 261 259 260 264 268 271 276 281 284 285 285
230 232 231 230 231 232 236 238 240 241 238 231 228 227 227 230 233 241 248 239 228 233 241 241 240 239 239 244 249 252 252 249 243 234 230 236 242 244 247 250 250 249 250 252 254 253 251 249 245 244 245 246 247 248 249 250 250 250 249 249 248 249 250 252 254 254 255 256 256 257 257 258 259 259 259 258 257 259 263 265 268 272 276 278 279 280
225 227 228 228 229 231 234 237 239 241 239 233 230 230 232 236 238 243 248 237 222 229 241 243 244 242 241 245 247 248 250 248 242 236 236 239 240 241 244 247 246 244 243 244 247 249 251 251 248 245 246 246 247 247 247 248 249 248 248 248 248 249 251 252 253 253 254 255 256 257 257 257 257 256 256 255 256 259 261 261 263 266 269 271 273 274
233 230 229 228 228 229 232 235 237 239 238 235 233 234 237 241 243 245 245 234 225 235 242 244 245 242 240 244 245 245 247 246 241 239 241 241 239 238 241 243 243 243 242 241 243 245 247 250 251 250 249 247 247 247 248 249 249 249 249 249 249 249 250 250 251 252 253 254 255 256 256 256 256 255 254 254 255 257 258 257 258 261 264 266 268 267
245 243 239 233 230 230 232 235 237 238 237 237 238 239 242 244 245 243 241 234 233 240 244 244 243 240 240 242 241 241 242 241 239 240 241 240 238 236 237 240 242 243 243 243 245 246 247 250 252 252 251 249 249 249 249 250 250 250 250 250 248 247 248 248 249 250 251 253 254 254 255 255 255 254 253 254 255 256 256 256 256 258 261 264 265 265
249 248 246 241 237 235 236 238 239 237 236 238 240 243 245 247 247 245 242 238 235 238 246 249 246 240 239 241 242 241 240 238 239 239 238 238 236 234 235 239 242 243 243 245 247 247 247 248 250 252 252 251 250 250 250 250 250 250 249 248 247 246 246 247 248 249 250 252 253 253 253 253 253 253 253 253 255 256 257 257 257 258 260 261 263 265
251 251 251 249 245 240 240 241 241 239 237 238 241 244 246 247 248 247 244 239 236 238 246 252 250 243 239 239 240 239 236 236 238 238 236 236 234 233 236 240 243 243 243 244 245 245 246 247 249 251 252 252 252 252 252 252 251 250 248 247 246 246 246 247 248 249 250 251 251 252 252 252 252 252 252 254 255 257 258 258 258 258 258 260 261 262
251 252 252 250 248 245 243 243 242 239 239 240 243 246 248 249 250 250 247 242 240 242 245 250 253 248 240 235 234 233 232 234 238 238 237 235 234 235 238 240 242 243 242 243 243 243 245 247 249 250 252 252 253 254 254 253 253 251 250 248 247 246 246 247 248 249 250 250 250 251 251 252 252 253 253 254 256 258 259 260 259 259 259 259 260 261
248 248 248 248 249 249 248 247 246 242 241 243 245 246 248 250 251 252 250 248 247 246 246 248 253 253 246 239 235 233 232 235 237 237 237 237 236 238 240 241 242 243 243 243 242 242 244 247 248 250 252 253 253 254 255 255 255 254 252 250 249 248 247 248 248 249 249 250 250 251 251 252 252 253 253 255 257 259 260 261 261 260 260 260 262 263
248 248 248 249 251 252 252 252 252 249 244 244 246 248 249 250 251 252 252 250 250 249 247 247 251 254 251 244 238 235 234 235 237 237 237 236 237 238 239 241 243 244 244 244 242 241 244 248 249 250 252 253 254 255 256 257 258 257 254 252 251 250 250 249 249 250 250 250 250 251 252 252 253 254 254 256 258 260 261 262 263 263 264 264 265 266
251 251 252 253 255 256 254 253 255 255 251 248 247 248 248 248 247 247 246 246 247 248 247 247 249 253 253 248 241 238 236 235 236 237 236 236 236 237 238 240 243 244 245 244 243 243 245 249 252 253 254 255 256 257 258 258 258 257 255 253 252 252 251 251 251 250 251 251 251 252 252 253 255 255 256 258 259 261 262 264 265 266 266 267 267 268
253 256 259 260 260 260 257 255 255 255 253 251 248 246 244 244 244 242 239 238 241 244 246 247 248 252 254 251 246 242 238 235 235 236 236 236 237 238 238 240 242 244 245 245 245 247 249 250 252 252 253 255 257 258 258 258 258 258 257 255 253 252 252 252 252 252 252 252 253 253 254 255 257 258 258 260 261 262 264 265 267 268 269 269 269 270
257 261 263 262 262 262 261 260 259 257 253 251 250 247 244 243 243 242 238 236 237 241 244 246 247 250 253 252 248 244 241 238 236 236 237 237 238 238 239 240 242 244 246 246 247 249 251 251 251 251 252 254 256 257 258 259 259 259 258 256 254 253 253 253 253 252 252 253 254 255 256 257 258 260 260 262 263 264 265 267 268 270 271 272 273 274
260 261 262 263 264 265 263 262 263 262 258 254 251 249 247 245 245 243 240 237 236 238 242 244 246 247 249 249 247 244 241 238 238 239 238 238 238 239 239 241 243 244 246 247 248 249 250 250 250 251 252 254 256 257 257 258 258 258 258 257 255 254 253 252 252 252 253 254 255 256 257 258 260 261 263 264 265 266 267 269 270 271 273 274 276 277
Height
5759 5759 5761 5770 5779 5786 5790 5793 5795 5796 5797 5798 5800 5804 5807 5810 5814 5817 5819 5821 5822 5821 5823 5824 5824 5832 5839 5838 5837 5838 5836 5838 5843 5846 5849 5851 5852 5852 5854 5856 5858 5860 5861 5860 5860 5862 5864 5864 5864 5864 5865 5865 5865 5863 5862 5862 5863 5863 5863 5863 5863 5863 5864 5864 5865 5865 5865 5865 5865 5866 5867 5866 5866 5867 5868 5868 5867 5868 5868 5868 5868 5869 5868 5868 5868 5868
5752 5752 5761 5773 5779 5783 5785 5787 5788 5789 5791 5793 5796 5800 5803 5807 5811 5814 5815 5817 5819 5819 5820 5822 5820 5826 5834 5836 5835 5835 5833 5836 5842 5844 5845 5848 5849 5850 5852 5854 5856 5858 5858 5858 5858 5860 5861 5862 5862 5862 5862 5863 5864 5862 5861 5861 5861 5861 5861 5861 5860 5861 5862 5862 5862 5862 5863 5863 5863 5864 5865 5865 5865 5866 5866 5866 5865 5866 5865 5865 5865 5865 5865 5865 5865 5865
5744 5749 5763 5771 5772 5776 5778 5779 5781 5783 5786 5789 5792 5796 5800 5805 5808 5809 5811 5814 5816 5815 5816 5818 5817 5820 5828 5832 5831 5831 5831 5835 5839 5841 5842 5843 5845 5847 5850 5852 5854 5855 5856 5857 5857 5857 5858 5859 5859 5859 5860 5860 5861 5860 5860 5860 5859 5859 5859 5858 5858 5859 5859 5859 5860 5860 5860 5860 5861 5862 5862 5863 5863 5864 5864 5864 5864 5863 5862 5862 5862 5861 5861 5862 5863 5862
5741 5751 5762 5763 5765 5770 5770 5771 5774 5777 5779 5783 5788 5791 5796 5801 5802 5804 5807 5810 5811 5810 5811 5813 5813 5815 5821 5826 5828 5829 5830 5833 5835 5836 5838 5840 5841 5845 5847 5849 5851 5853 5854 5854 5854 5855 5856 5856 5856 5857 5857 5857 5857 5858 5859 5858 5857 5856 5856 5856 5856 5857 5857 5857 5858 5858 5858 5858 5859 5860 5860 5860 5861 5861 5861 5862 5862 5860 5859 5859 5859 5858 5859 5859 5860 5860
5742 5751 5755 5757 5761 5763 5763 5766 5769 5771 5775 5780 5785 5788 5792 5796 5798 5799 5802 5804 5805 5804 5806 5807 5807 5809 5815 5820 5825 5828 5827 5829 5832 5832 5834 5837 5839 5842 5843 5846 5848 5850 5851 5851 5851 5852 5853 5853 5854 5854 5854 5854 5855 5856 5856 5856 5855 5854 5853 5853 5854 5855 5855 5856 5856 5856 5855 5856 5857 5857 5858 5858 5858 5858 5859 5859 5858 5857 5857 5857 5856 5857 5857 5856 5856 5856
5740 5746 5749 5753 5755 5755 5758 5762 5765 5769 5774 5777 5782 5787 5790 5792 5793 5794 5796 5797 5799 5800 5802 5802 5800 5804 5811 5815 5821 5824 5823 5824 5828 5828 5831 5835 5837 5838 5840 5843 5845 5846 5847 5848 5848 5849 5849 5850 5851 5851 5852 5852 5853 5853 5853 5852 5852 5852 5851 5851 5851 5853 5853 5854 5854 5854 5854 5855 5855 5856 5856 5856 5856 5856 5857 5856 5855 5854 5855 5855 5855 5855 5854 5854 5853 5853
5736 5741 5745 5746 5747 5750 5753 5756 5761 5766 5769 5772 5781 5785 5786 5788 5789 5789 5790 5792 5793 5795 5797 5796 5795 5798 5805 5811 5816 5819 5819 5821 5824 5826 5829 5833 5834 5835 5837 5839 5840 5841 5843 5844 5845 5845 5846 5847 5848 5849 5849 5849 5850 5849 5848 5848 5849 5850 5850 5849 5849 5850 5851 5851 5852 5852 5853 5853 5853 5854 5854 5854 5854 5855 5854 5853 5852 5852 5852 5852 5853 5853 5852 5852 5851 5850
5736 5738 5739 5740 5743 5746 5748 5754 5762 5765 5766 5772 5780 5781 5781 5784 5783 5783 5784 5785 5787 5789 5790 5791 5792 5792 5798 5807 5812 5815 5817 5818 5821 5824 5827 5830 5831 5832 5834 5835 5836 5837 5839 5840 5840 5841 5842 5843 5845 5846 5846 5846 5847 5846 5845 5846 5847 5848 5848 5847 5847 5848 5848 5849 5849 5850 5850 5851 5851 5851 5851 5852 5852 5852 5851 5850 5849 5850 5850 5850 5851 5850 5850 5849 5849 5848
5735 5735 5736 5737 5739 5742 5748 5757 5763 5762 5764 5771 5774 5775 5777 5777 5775 5777 5778 5778 5781 5782 5783 5788 5791 5788 5791 5802 5809 5811 5813 5816 5819 5822 5825 5827 5828 5829 5830 5831 5832 5833 5834 5835 5836 5837 5838 5840 5841 5842 5843 5843 5843 5843 5843 5844 5844 5845 5845 5845 5846 5846 5847 5846 5846 5846 5847 5848 5848 5848 5848 5849 5849 5848 5848 5847 5847 5848 5848 5848 5848 5848 5848 5847 5846 5846
5725 5730 5733 5732 5733 5740 5749 5754 5755 5755 5759 5764 5766 5768 5771 5768 5768 5771 5771 5773 5775 5773 5777 5786 5789 5785 5786 5795 5803 5807 5810 5814 5818 5820 5821 5824 5825 5825 5826 5827 5828 5829 5830 5831 5833 5834 5835 5836 5837 5838 5839 5840 5841 5841 5841 5841 5841 5842 5843 5844 5844 5845 5844 5844 5843 5844 5844 5844 5844 5845 5845 5846 5845 5845 5845 5844 5845 5845 5845 5845 5845 5845 5845 5844 5844 5843
5717 5723 5723 5723 5730 5738 5744 5745 5746 5750 5755 5758 5758 5762 5764 5761 5763 5764 5765 5770 5769 5766 5775 5785 5788 5785 5782 5787 5797 5804 5809 5813 5815 5817 5819 5820 5821 5821 5822 5823 5824 5825 5826 5828 5830 5831 5831 5831 5833 5834 5835 5836 5837 5838 5838 5838 5839 5839 5840 5840 5841 5842 5842 5842 5842 5841 5841 5841 5841 5842 5843 5843 5842 5842 5842 5842 5843 5842 5842 5842 5842 5841 5841 5841 5840 5840
5710 5712 5713 5721 5729 5734 5736 5737 5742 5746 5750 5753 5754 5757 5758 5757 5758 5758 5759 5763 5759 5762 5777 5785 5785 5780 5776 5782 5792 5801 5808 5810 5812 5815 5816 5816 5817 5817 5818 5819 5821 5822 5823 5824 5826 5827 5828 5828 5828 5830 5831 5832 5833 5833 5834 5835 5836 5836 5836 5837 5837 5838 5838 5839 5839 5838 5838 5838 5839 5839 5839 5840 5839 5839 5839 5840 5840 5840 5839 5839 5838 5838 5837 5837 5836 5836
5704 5707 5713 5720 5724 5727 5731 5732 5737 5740 5744 5748 5749 5752 5752 5752 5753 5751 5752 5755 5754 5764 5777 5780 5777 5770 5770 5781 5789 5795 5805 5808 5810 5812 5812 5812 5813 5814 5815 5816 5818 5819 5820 5821 5822 5824 5824 5824 5825 5826 5827 5828 5828 5829 5830 5831 5831 5832 5832 5832 5833 5834 5834 5835 5835 5835 5835 5835 5836 5836 5836 5836 5836 5836 5837 5837 5837 5836 5836 5835 5835 5834 5834 5833 5833 5832
5698 5703 5706 5711 5716 5721 5724 5728 5734 5739 5743 5746 5747 5749 5750 5749 5748 5746 5748 5750 5754 5765 5772 5773 5767 5758 5766 5780 5783 5789 5800 5805 5806 5807 5808 5810 5811 5811 5812 5813 5815 5816 5816 5818 5819 5820 5821 5822 5822 5822 5823 5824 5824 5825 5826 5826 5827 5828 5828 5829 5829 5830 5830 5830 5831 5831 5831 5832 5832 5832 5832 5832 5832 5833 5833 5833 5833 5833 5832 5832 5831 5831 5830 5830 5829 5829
5692 5696 5698 5704 5714 5719 5722 5728 5737 5741 5742 5744 5746 5747 5745 5744 5743 5745 5747 5748 5754 5762 5765 5764 5754 5750 5766 5779 5780 5786 5795 5799 5801 5803 5805 5808 5808 5808 5809 5809 5811 5812 5813 5814 5816 5817 5818 5819 5819 5820 5820 5821 5821 5822 5822 5823 5823 5823 5824 5824 5825 5826 5826 5826 5826 5826 5827 5828 5828 5827 5828 5828 5828 5829 5829 5829 5829 5829 5828 5828 5827 5827 5827 5826 5825 5825
5687 5690 5697 5704 5711 5716 5719 5726 5733 5733 5733 5737 5740 5738 5738 5741 5741 5744 5745 5746 5751 5753 5753 5752 5745 5751 5769 5776 5776 5781 5787 5793 5797 5798 5802 5804 5805 5806 5806 5806 5807 5808 5810 5811 5812 5814 5815 5815 5816 5817 5817 5817 5818 5818 5819 5819 5819 5820 5820 5820 5821 5821 5821 5821 5821 5822 5823 5823 5823 5824 5824 5824 5824 5824 5824 5824 5824 5824 5823 5823 5823 5823 5823 5822 5821 5820
5683 5687 5697 5700 5701 5707 5715 5721 5723 5724 5728 5732 5732 5732 5739 5741 5738 5739 5740 5741 5743 5740 5742 5744 5743 5753 5764 5765 5769 5775 5778 5786 5792 5794 5798 5800 5801 5803 5803 5804 5804 5804 5805 5807 5809 5810 5811 5812 5813 5813 5814 5814 5814 5815 5815 5816 5816 5816 5816 5816 5817 5817 5817 5817 5818 5819 5819 5819 5819 5820 5820 5820 5819 5819 5819 5820 5819 5819 5819 5819 5819 5819 5818 5818 5817 5816
5682 5686 5693 5694 5695 5704 5713 5714 5714 5718 5722 5723 5725 5733 5739 5735 5731 5733 5733 5733 5734 5732 5735 5740 5743 5751 5755 5757 5765 5770 5773 5780 5785 5790 5794 5795 5797 5800 5800 5801 5801 5801 5801 5802 5805 5806 5807 5808 5809 5810 5810 5810 5811 5811 5811 5812 5812 5813 5813 5813 5814 5814 5814 5814 5815 5815 5815 5815 5816 5816 5816 5815 5815 5815 5815 5815 5815 5815 5815 5815 5815 5815 5814 5813 5812 5811
5679 5681 5686 5690 5694 5701 5704 5703 5705 5710 5713 5715 5723 5731 5730 5725 5725 5727 5727 5728 5730 5729 5732 5738 5741 5744 5748 5755 5762 5766 5771 5776 5778 5783 5788 5791 5793 5794 5796 5797 5797 5797 5798 5799 5801 5802 5803 5804 5804 5805 5806 5806 5807 5807 5807 5808 5809 5810 5810 5810 5810 5811 5811 5811 5811 5812 5812 5812 5812 5812 5812 5812 5812 5812 5812 5812 5811 5811 5812 5812 5811 5811 5810 5809 5808 5807
5677 5677 5680 5685 5691 5694 5694 5694 5698 5704 5708 5711 5718 5721 5719 5719 5722 5723 5724 5726 5727 5727 5728 5732 5733 5735 5746 5757 5760 5762 5768 5771 5772 5775 5779 5785 5788 5789 5791 5793 5792 5793 5794 5795 5796 5797 5799 5800 5800 5801 5802 5802 5803 5803 5804 5804 5805 5806 5806 5806 5807 5807 5807 5808 5808 5809 5808 5808 5809 5808 5809 5808 5808 5808 5808 5808 5808 5809 5809 5808 5807 5807 5806 5805 5804 5803
5671 5670 5674 5680 5683 5683 5682 5687 5695 5702 5706 5707 5710 5713 5713 5716 5717 5718 5720 5720 5722 5722 5723 5725 5724 5731 5749 5757 5755 5757 5761 5763 5766 5768 5772 5778 5782 5784 5785 5786 5788 5789 5789 5790 5791 5793 5794 5795 5796 5797 5797 5798 5799 5799 5800 5800 5801 5802 5802 5803 5803 5803 5804 5804 5805 5805 5805 5805 5805 5805 5805 5805 5805 5805 5805 5805 5805 5805 5805 5804 5804 5803 5802 5801 5800 5799
5662 5665 5670 5673 5672 5673 5678 5689 5697 5700 5700 5702 5706 5708 5710 5713 5713 5713 5712 5714 5718 5718 5720 5722 5718 5728 5746 5749 5748 5754 5755 5757 5761 5763 5767 5771 5773 5777 5780 5781 5783 5784 5785 5786 5787 5788 5790 5790 5791 5792 5793 5794 5795 5795 5796 5796 5797 5798 5798 5799 5799 5799 5800 5800 5801 5801 5801 5801 5801 5802 5802 5801 5802 5802 5802 5802 5802 5802 5801 5800 5800 5799 5798 5797 5796 5795
5660 5662 5664 5664 5666 5671 5679 5687 5690 5691 5694 5697 5698 5700 5704 5705 5704 5706 5707 5711 5715 5714 5718 5719 5711 5719 5738 5741 5743 5748 5749 5753 5757 5758 5762 5765 5765 5770 5773 5775 5778 5779 5780 5781 5782 5783 5784 5785 5786 5787 5788 5789 5790 5791 5792 5792 5793 5793 5794 5795 5795 5796 5796 5796 5796 5797 5797 5797 5797 5798 5797 5797 5798 5798 5798 5798 5798 5797 5797 5796 5795 5794 5794 5793 5791 5790
5651 5650 5653 5657 5662 5668 5674 5677 5679 5683 5686 5686 5686 5691 5695 5696 5699 5703 5704 5708 5709 5707 5713 5712 5703 5714 5735 5739 5739 5743 5744 5749 5752 5754 5758 5760 5761 5763 5764 5767 5770 5772 5774 5776 5776 5777 5778 5779 5781 5781 5783 5784 5785 5787 5787 5788 5789 5789 5790 5790 5791 5791 5791 5792 5792 5792 5793 5793 5793 5793 5793 5793 5794 5793 5794 5794 5793 5793 5792 5791 5790 5790 5789 5788 5786 5785
5641 5642 5647 5652 5654 5656 5661 5664 5667 5672 5675 5677 5681 5687 5689 5693 5697 5697 5699 5702 5699 5699 5707 5704 5699 5716 5736 5738 5736 5739 5740 5745 5748 5750 5752 5754 5757 5757 5757 5759 5762 5764 5768 5769 5770 5772 5772 5774 5775 5776 5778 5780 5781 5782 5783 5784 5784 5785 5785 5786 5786 5787 5787 5787 5788 5788 5788 5788 5788 5789 5789 5789 5789 5789 5789 5789 5788 5787 5787 5786 5785 5785 5784 5783 5781 5780
5633 5635 5640 5642 5642 5644 5649 5654 5662 5670 5672 5673 5677 5681 5684 5688 5690 5690 5694 5694 5691 5696 5703 5698 5701 5720 5734 5734 5734 5736 5737 5740 5743 5744 5745 5748 5752 5752 5752 5753 5755 5757 5760 5762 5764 5766 5768 5769 5770 5772 5774 5775 5776 5777 5778 5778 5779 5780 5780 5781 5782 5782 5782 5783 5783 5783 5784 5784 5784 5784 5784 5784 5784 5784 5784 5783 5783 5782 5781 5781 5780 5779 5778 5777 5776 5774
5624 5625 5629 5633 5635 5641 5648 5654 5663 5668 5667 5665 5670 5675 5679 5682 5685 5687 5686 5683 5688 5697 5696 5694 5705 5717 5724 5728 5730 5731 5732 5734 5735 5737 5739 5743 5746 5748 5748 5747 5748 5750 5752 5755 5758 5760 5762 5764 5765 5767 5769 5770 5771 5771 5772 5773 5773 5774 5775 5776 5777 5777 5778 5778 5778 5778 5779 5779 5779 5779 5779 5779 5779 5778 5778 5778 5777 5776 5776 5775 5774 5773 5772 5771 5770 5769
5614 5614 5620 5627 5631 5639 5647 5649 5652 5656 5658 5660 5665 5671 5674 5677 5679 5678 5675 5679 5690 5691 5685 5693 5705 5708 5715 5725 5725 5724 5726 5728 5728 5730 5732 5735 5738 5741 5743 5741 5742 5744 5745 5749 5752 5753 5755 5757 5759 5761 5763 5764 5766 5766 5767 5768 5768 5770 5770 5771 5772 5772 5773 5773 5773 5773 5774 5774 5774 5773 5773 5773 5773 5773 5772 5772 5771 5771 5770 5769 5768 5768 5767 5766 5765 5764
5606 5607 5616 5622 5625 5633 5640 5639 5640 5647 5651 5655 5659 5663 5667 5670 5670 5669 5670 5679 5685 5680 5680 5696 5701 5699 5709 5720 5718 5718 5720 5719 5720 5722 5724 5726 5728 5732 5736 5736 5737 5739 5740 5742 5744 5746 5748 5749 5752 5754 5756 5758 5760 5760 5761 5762 5763 5765 5765 5766 5767 5767 5767 5768 5768 5768 5768 5768 5768 5768 5768 5768 5767 5767 5766 5766 5766 5765 5764 5764 5763 5762 5761 5760 5760 5759
5601 5604 5612 5616 5618 5625 5630 5631 5634 5639 5642 5646 5649 5652 5657 5661 5662 5663 5667 5674 5677 5673 5679 5692 5692 5690 5701 5709 5711 5714 5712 5709 5711 5714 5718 5721 5722 5723 5729 5731 5732 5734 5735 5736 5737 5738 5739 5741 5744 5747 5749 5751 5752 5752 5754 5756 5757 5759 5759 5760 5761 5761 5762 5762 5762 5762 5762 5762 5762 5762 5762 5762 5761 5761 5760 5760 5760 5759 5759 5758 5758 5757 5756 5755 5755 5753
5595 5600 5608 5611 5610 5613 5620 5625 5629 5631 5634 5638 5641 5643 5648 5652 5654 5656 5660 5666 5669 5668 5674 5683 5682 5683 5695 5704 5706 5706 5703 5702 5706 5709 5712 5716 5715 5716 5720 5724 5725 5726 5727 5728 5729 5729 5731 5734 5736 5739 5741 5742 5744 5745 5747 5749 5750 5752 5753 5754 5754 5755 5756 5756 5756 5756 5756 5756 5756 5756 5756 5755 5755 5755 5754 5754 5754 5753 5753 5753 5752 5752 5751 5750 5749 5747
5589 5595 5602 5604 5598 5601 5613 5618 5619 5624 5628 5628 5629 5634 5640 5645 5648 5650 5654 5659 5662 5664 5670 5674 5673 5680 5695 5701 5699 5697 5697 5698 5700 5702 5704 5708 5709 5710 5712 5715 5717 5718 5718 5720 5722 5723 5725 5727 5729 5731 5732 5733 5735 5738 5740 5741 5744 5745 5746 5747 5748 5749 5749 5749 5749 5749 5749 5749 5749 5749 5749 5749 5748 5748 5748 5748 5748 5747 5747 5747 5747 5746 5745 5744 5743 5741
5585 5588 5594 5595 5591 5597 5609 5611 5614 5620 5614 5606 5616 5631 5638 5642 5645 5646 5648 5653 5657 5660 5662 5664 5670 5682 5692 5692 5690 5692 5692 5693 5695 5695 5696 5700 5703 5703 5704 5707 5708 5709 5711 5713 5715 5717 5718 5719 5721 5722 5723 5725 5728 5730 5732 5734 5737 5737 5738 5739 5740 5741 5741 5741 5741 5742 5742 5742 5742 5742 5742 5742 5742 5742 5741 5742 5742 5742 5742 5741 5741 5741 5739 5739 5738 5736
5580 5582 5587 5589 5589 5594 5604 5608 5609 5604 5590 5593 5618 5635 5636 5638 5640 5640 5642 5647 5653 5654 5654 5658 5668 5677 5679 5681 5686 5688 5686 5686 5689 5689 5689 5691 5694 5696 5698 5700 5699 5701 5705 5707 5709 5711 5711 5711 5712 5714 5716 5718 5721 5722 5723 5726 5729 5730 5731 5732 5733 5734 5734 5734 5734 5735 5735 5735 5735 5735 5736 5735 5735 5735 5735 5736 5736 5736 5736 5736 5735 5735 5734 5733 5732 5730
5576 5579 5581 5584 5586 5590 5598 5601 5595 5583 5581 5601 5623 5629 5628 5632 5634 5634 5636 5640 5644 5646 5647 5651 5659 5668 5673 5678 5682 5680 5677 5679 5681 5681 5682 5685 5687 5689 5692 5693 5693 5694 5699 5701 5703 5704 5704 5704 5705 5707 5709 5711 5712 5714 5716 5718 5721 5722 5724 5725 5726 5726 5727 5727 5727 5727 5728 5728 5728 5728 5729 5729 5729 5729 5729 5730 5730 5730 5731 5730 5730 5729 5728 5727 5726 5724
5570 5573 5576 5579 5581 5584 5587 5587 5581 5579 5591 5608 5615 5617 5622 5625 5626 5627 5628 5631 5637 5640 5643 5646 5654 5663 5669 5670 5671 5671 5671 5672 5670 5671 5677 5680 5682 5684 5685 5687 5688 5688 5691 5694 5696 5696 5696 5698 5699 5701 5701 5702 5704 5706 5709 5711 5712 5714 5716 5718 5718 5719 5719 5720 5720 5721 5721 5721 5721 5721 5722 5722 5723 5723 5724 5724 5725 5725 5725 5724 5724 5723 5722 5721 5719 5718
5564 5567 5571 5573 5574 5576 5578 5578 5580 5584 5592 5599 5604 5612 5618 5620 5622 5624 5621 5625 5633 5636 5636 5639 5646 5654 5659 5661 5665 5665 5664 5662 5659 5663 5673 5677 5677 5678 5678 5680 5682 5682 5683 5687 5688 5689 5690 5691 5691 5693 5694 5696 5698 5700 5702 5703 5705 5707 5709 5710 5711 5711 5712 5712 5713 5714 5714 5714 5714 5714 5715 5716 5717 5718 5718 5719 5719 5719 5718 5718 5718 5717 5716 5715 5713 5712
5559 5561 5565 5566 5567 5571 5572 5573 5577 5578 5581 5592 5603 5611 5615 5616 5618 5617 5610 5615 5627 5631 5629 5633 5640 5647 5653 5657 5658 5656 5653 5650 5650 5660 5671 5672 5670 5671 5672 5673 5676 5677 5678 5680 5680 5681 5683 5683 5684 5686 5687 5690 5692 5694 5695 5695 5697 5700 5701 5702 5703 5704 5704 5705 5706 5706 5706 5706 5707 5708 5709 5710 5711 5712 5712 5712 5712 5712 5712 5712 5711 5710 5709 5708 5707 5706
5554 5556 5559 5560 5562 5565 5566 5567 5570 5570 5578 5593 5602 5606 5607 5607 5609 5608 5600 5606 5624 5630 5627 5630 5636 5642 5648 5649 5646 5644 5642 5641 5647 5659 5665 5663 5662 5664 5664 5666 5669 5671 5672 5673 5672 5673 5675 5675 5676 5678 5680 5683 5685 5686 5686 5687 5689 5691 5693 5694 5696 5696 5698 5698 5698 5698 5698 5698 5699 5701 5703 5704 5705 5705 5705 5705 5706 5706 5705 5705 5704 5704 5703 5702 5701 5700
5549 5550 5553 5554 5557 5560 5561 5562 5565 5567 5577 5589 5593 5595 5597 5597 5600 5596 5590 5603 5622 5625 5621 5625 5630 5636 5640 5636 5631 5632 5633 5637 5645 5652 5650 5647 5650 5653 5653 5657 5660 5661 5662 5664 5665 5666 5666 5666 5667 5671 5674 5677 5677 5677 5678 5680 5681 5683 5685 5687 5688 5690 5691 5691 5690 5690 5690 5691 5693 5694 5696 5697 5698 5698 5698 5699 5699 5699 5698 5698 5697 5697 5697 5696 5695 5694
5543 5545 5547 5549 5553 5556 5556 5558 5561 5565 5574 5582 5584 5586 5587 5588 5588 5585 5589 5607 5618 5615 5615 5621 5623 5626 5626 5620 5618 5624 5628 5632 5636 5636 5632 5634 5639 5641 5644 5649 5651 5652 5654 5656 5658 5658 5657 5657 5659 5663 5666 5668 5669 5669 5670 5672 5674 5675 5677 5679 5681 5683 5683 5682 5682 5682 5683 5684 5686 5687 5689 5690 5691 5691 5691 5691 5692 5692 5691 5691 5691 5691 5690 5690 5689 5688
5538 5540 5542 5544 5548 5549 5551 5553 5555 5560 5570 5576 5578 5578 5578 5578 5579 5583 5594 5605 5606 5604 5609 5613 5613 5615 5613 5608 5611 5618 5621 5623 5623 5621 5623 5628 5631 5634 5638 5641 5643 5645 5647 5649 5651 5651 5651 5651 5652 5654 5657 5659 5660 5661 5663 5664 5666 5668 5670 5672 5674 5674 5674 5674 5674 5675 5676 5678 5680 5681 5682 5683 5683 5684 5684 5684 5685 5685 5684 5684 5684 5684 5684 5683 5683 5682
5533 5534 5536 5540 5543 5544 5545 5547 5548 5555 5566 5571 5571 5571 5571 5572 5576 5581 5587 5592 5595 5598 5601 5602 5606 5608 5604 5602 5608 5613 5614 5616 5615 5616 5619 5622 5624 5629 5633 5634 5636 5638 5640 5642 5644 5645 5645 5645 5645 5646 5648 5650 5651 5653 5654 5655 5658 5660 5661 5663 5665 5665 5665 5666 5667 5668 5669 5671 5673 5674 5675 5676 5676 5677 5677 5677 5677 5677 5677 5677 5677 5677 5677 5676 5676 5676
5528 5531 5534 5537 5539 5540 5541 5542 5546 5554 5562 5563 5562 5563 5565 5567 5571 5575 5578 5584 5590 5593 5593 5595 5599 5600 5598 5600 5604 5605 5607 5608 5608 5610 5613 5615 5619 5624 5626 5626 5628 5630 5632 5634 5636 5637 5637 5637 5638 5639 5639 5641 5642 5644 5645 5647 5649 5651 5653 5655 5657 5657 5658 5659 5660 5660 5662 5664 5665 5667 5668 5668 5669 5669 5669 5670 5670 5670 5670 5670 5670 5670 5670 5669 5668 5668
5525 5527 5529 5530 5532 5533 5536 5540 5545 5553 5557 5556 5557 5559 5561 5563 5567 5570 5574 5579 5583 5585 5587 5588 5588 5591 5594 5596 5596 5598 5601 5601 5601 5604 5605 5608 5612 5615 5616 5618 5620 5621 5624 5626 5628 5630 5631 5631 5632 5632 5632 5634 5635 5636 5638 5639 5641 5643 5646 5649 5649 5650 5651 5652 5652 5653 5655 5657 5658 5659 5660 5661 5661 5662 5662 5663 5663 5663 5663 5663 5663 5663 5662 5662 5661 5660
5520 5521 5522 5524 5525 5527 5532 5538 5545 5551 5554 5552 5552 5553 5555 5558 5562 5565 5568 5572 5575 5577 5580 5581 5580 5583 5587 5589 5590 5593 5595 5593 5594 5597 5598 5601 5605 5607 5609 5611 5612 5614 5617 5620 5622 5624 5624 5624 5625 5625 5626 5627 5628 5630 5631 5633 5635 5638 5641 5642 5643 5644 5644 5644 5644 5646 5648 5649 5651 5652 5653 5654 5654 5654 5655 5655 5655 5656 5656 5656 5656 5655 5655 5654 5654 5653
5515 5515 5517 5519 5521 5524 5530 5537 5541 5545 5548 5547 5546 5548 5551 5555 5557 5558 5561 5565 5567 5569 5572 5573 5573 5575 5579 5582 5585 5586 5586 5586 5588 5590 5591 5594 5597 5600 5603 5605 5605 5607 5610 5612 5615 5616 5616 5617 5618 5618 5619 5621 5622 5624 5626 5627 5629 5632 5634 5635 5636 5637 5637 5637 5637 5639 5641 5642 5643 5644 5645 5646 5647 5647 5648 5648 5648 5649 5649 5649 5649 5648 5648 5648 5647 5646
5508 5510 5513 5517 5519 5522 5528 5534 5536 5537 5541 5542 5543 5545 5547 5549 5550 5550 5552 5556 5559 5560 5563 5565 5566 5567 5571 5575 5578 5578 5579 5580 5581 5582 5584 5586 5589 5593 5595 5596 5598 5599 5602 5604 5607 5609 5610 5612 5612 5613 5614 5615 5616 5618 5619 5621 5623 5625 5626 5628 5629 5629 5630 5630 5631 5632 5633 5635 5636 5637 5638 5639 5640 5640 5640 5640 5641 5641 5641 5641 5641 5641 5641 5640 5640 5639
5502 5506 5511 5513 5514 5517 5523 5530 5531 5530 5532 5535 5537 5539 5540 5540 5539 5540 5543 5547 5551 5554 5556 5557 5558 5560 5563 5567 5570 5572 5573 5574 5574 5574 5576 5580 5583 5586 5588 5589 5590 5592 5594 5597 5600 5602 5604 5606 5606 5607 5608 5608 5609 5611 5612 5613 5615 5617 5619 5620 5621 5622 5622 5623 5624 5625 5626 5627 5629 5630 5631 5632 5633 5633 5633 5633 5633 5633 5633 5634 5634 5633 5633 5633 5632 5631
5499 5503 5506 5505 5506 5511 5519 5524 5523 5521 5525 5530 5530 5531 5532 5531 5530 5533 5537 5541 5544 5547 5548 5548 5550 5553 5556 5560 5562 5564 5567 5569 5568 5567 5570 5574 5578 5579 5580 5582 5584 5585 5587 5590 5592 5595 5598 5599 5599 5601 5601 5602 5603 5604 5604 5606 5608 5609 5611 5612 5612 5614 5615 5616 5618 5619 5619 5621 5622 5623 5624 5625 5625 5625 5625 5625 5626 5626 5626 5626 5626 5626 5626 5625 5624 5624
5495 5498 5499 5498 5500 5506 5513 5517 5515 5513 5518 5523 5523 5522 5524 5524 5523 5526 5531 5535 5538 5540 5540 5541 5543 5545 5549 5552 5553 5555 5559 5562 5562 5561 5564 5568 5570 5571 5573 5575 5577 5579 5581 5583 5585 5588 5590 5591 5593 5594 5594 5595 5597 5597 5598 5600 5600 5601 5602 5603 5604 5606 5607 5609 5610 5611 5612 5614 5615 5615 5616 5617 5617 5617 5618 5618 5618 5618 5618 5618 5618 5618 5617 5617 5616 5616